| time (UTC) | temp F | wind direction | speed knots | gust knots | rain 1hr in | rain 24hr in | rain mn in | humidity % | barometer mb |
| 20260506235006 | 46 | 153 | 0.0 | 4.3 | 0.00 | 0.07 | 0.00 | 72 | 1011.8 |
| 20260506234006 | 46 | 140 | 0.9 | 1.7 | 0.00 | 0.07 | 0.00 | 71 | 1011.9 |
| 20260506233508 | 46 | 161 | 0.9 | 2.6 | 0.00 | 0.07 | 0.00 | 72 | 1011.9 |
| 20260506232006 | 46 | 212 | 0.0 | 4.3 | 0.00 | 0.07 | 0.00 | 71 | 1012.0 |
| 20260506231506 | 46 | 139 | 2.6 | 4.3 | 0.00 | 0.07 | 0.00 | 71 | 1011.9 |
| 20260506231006 | 46 | 119 | 0.0 | 1.7 | 0.00 | 0.07 | 0.00 | 71 | 1012.1 |
| 20260506230507 | 47 | 119 | 0.9 | 1.7 | 0.00 | 0.07 | 0.00 | 71 | 1011.9 |
| 20260506230019 | 47 | 121 | 0.9 | 1.7 | 0.00 | 0.07 | 0.00 | 70 | 1011.9 |
| 20260506225507 | 47 | 122 | 0.0 | 2.6 | 0.00 | 0.07 | 0.00 | 69 | 1012.0 |
| 20260506225007 | 47 | 121 | 0.9 | 2.6 | 0.00 | 0.07 | 0.00 | 69 | 1012.0 |
| 20260506224508 | 46 | 68 | 0.9 | 2.6 | 0.00 | 0.07 | 0.00 | 72 | 1018.3 |
| 20260506184136 | 46 | 58 | 0.9 | 2.6 | 0.00 | 0.07 | 0.00 | 72 | 1018.3 |
| 20260506183531 | 46 | 59 | 0.9 | 2.6 | 0.00 | 0.07 | 0.00 | 72 | 1018.3 |
| 20260506183033 | 46 | 69 | 1.7 | 2.6 | 0.00 | 0.07 | 0.00 | 72 | 1018.3 |
| 20260506181233 | 46 | 89 | 0.9 | 6.1 | 0.00 | 0.07 | 0.00 | 72 | 1018.3 |
| 20260506180534 | 46 | 100 | 0.9 | 6.1 | 0.00 | 0.07 | 0.00 | 72 | 1018.3 |
| 20260506180020 | 46 | 111 | 2.6 | 6.1 | 0.00 | 0.07 | 0.00 | 72 | 1018.3 |
| 20260506175025 | 46 | 110 | 1.7 | 4.3 | 0.00 | 0.07 | 0.00 | 72 | 1018.3 |
| 20260506174521 | 46 | 70 | 1.7 | 4.3 | 0.00 | 0.07 | 0.00 | 72 | 1018.3 |
| 20260506173544 | 46 | 40 | 0.9 | 5.2 | 0.00 | 0.07 | 0.00 | 72 | 1018.3 |
| 20260506173019 | 46 | 101 | 0.9 | 2.6 | 0.00 | 0.07 | 0.00 | 72 | 1018.3 |
| 20260506172521 | 46 | 75 | 1.7 | 5.2 | 0.00 | 0.07 | 0.00 | 72 | 1018.3 |
| 20260506172015 | 46 | 106 | 2.6 | 5.2 | 0.00 | 0.07 | 0.00 | 72 | 1018.3 |
| 20260506171516 | 46 | 90 | 1.7 | 4.3 | 0.00 | 0.07 | 0.00 | 72 | 1018.3 |
| 20260506171054 | 46 | 111 | 1.7 | 4.3 | 0.00 | 0.07 | 0.00 | 72 | 1018.3 |
| 20260506170015 | 46 | 89 | 1.7 | 5.2 | 0.00 | 0.07 | 0.00 | 72 | 1018.3 |
| 20260506165513 | 46 | 95 | 1.7 | 6.1 | 0.00 | 0.07 | 0.00 | 72 | 1018.3 |
| 20260506165020 | 46 | 121 | 2.6 | 7.8 | 0.00 | 0.07 | 0.00 | 72 | 1018.3 |
| 20260506164046 | 46 | 116 | 2.6 | 7.0 | 0.00 | 0.07 | 0.00 | 72 | 1018.3 |
| 20260506163510 | 46 | 112 | 4.3 | 7.0 | 0.00 | 0.07 | 0.00 | 72 | 1018.3 |
| 20260506163020 | 46 | 98 | 1.7 | 5.2 | 0.00 | 0.07 | 0.00 | 72 | 1018.3 |
| 20260506162513 | 46 | 103 | 1.7 | 8.7 | 0.00 | 0.07 | 0.00 | 72 | 1018.3 |
| 20260506162014 | 46 | 78 | 3.5 | 8.7 | 0.00 | 0.07 | 0.00 | 72 | 1018.3 |
| 20260506161509 | 46 | 115 | 3.5 | 8.7 | 0.00 | 0.07 | 0.00 | 72 | 1018.3 |
| 20260506161017 | 46 | 74 | 4.3 | 8.7 | 0.00 | 0.07 | 0.00 | 72 | 1018.3 |
| 20260506160009 | 46 | 81 | 4.3 | 10.4 | 0.00 | 0.07 | 0.00 | 72 | 1018.3 |
| 20260506155508 | 46 | 110 | 4.3 | 7.8 | 0.00 | 0.07 | 0.00 | 72 | 1018.3 |
| 20260506154519 | 46 | 115 | 1.7 | 7.8 | 0.00 | 0.07 | 0.00 | 72 | 1018.3 |
| 20260506152530 | 46 | 115 | 6.1 | 10.4 | 0.00 | 0.07 | 0.00 | 72 | 1018.3 |
| 20260506152016 | 46 | 117 | 5.2 | 10.4 | 0.00 | 0.07 | 0.00 | 72 | 1018.3 |
| 20260506151512 | 46 | 125 | 6.1 | 10.4 | 0.00 | 0.07 | 0.00 | 72 | 1018.3 |
| 20260506151015 | 46 | 126 | 6.1 | 10.4 | 0.00 | 0.07 | 0.00 | 72 | 1018.3 |
| 20260506150520 | 46 | 113 | 6.1 | 7.8 | 0.00 | 0.07 | 0.00 | 72 | 1018.3 |
| 20260506150010 | 46 | 123 | 6.1 | 7.8 | 0.00 | 0.07 | 0.00 | 72 | 1018.3 |
| 20260506145512 | 46 | 123 | 4.3 | 7.8 | 0.00 | 0.07 | 0.00 | 72 | 1018.3 |
| 20260506145013 | 46 | 145 | 3.5 | 6.1 | 0.00 | 0.07 | 0.00 | 72 | 1018.3 |
| 20260506144016 | 46 | 269 | 0.9 | 4.3 | 0.00 | 0.07 | 0.00 | 72 | 1018.3 |
| 20260506143510 | 46 | 109 | 0.9 | 2.6 | 0.00 | 0.07 | 0.00 | 72 | 1018.3 |
| 20260506143012 | 46 | 209 | 1.7 | 7.0 | 0.00 | 0.07 | 0.00 | 72 | 1018.3 |
| 20260506142510 | 46 | 268 | 1.7 | 7.0 | 0.00 | 0.07 | 0.00 | 72 | 1018.3 |
| 20260506142013 | 46 | 104 | 3.5 | 6.1 | 0.00 | 0.07 | 0.00 | 72 | 1018.3 |
| 20260506140013 | 46 | 261 | 2.6 | 6.1 | 0.00 | 0.07 | 0.00 | 72 | 1018.3 |
| 20260506135012 | 46 | 225 | 0.9 | 2.6 | 0.00 | 0.07 | 0.00 | 72 | 1018.3 |
| 20260506134511 | 46 | 213 | 1.7 | 2.6 | 0.00 | 0.07 | 0.00 | 72 | 1018.3 |
| 20260506134012 | 46 | 263 | 0.9 | 5.2 | 0.00 | 0.07 | 0.00 | 72 | 1018.3 |
| 20260506133508 | 46 | 222 | 1.7 | 6.1 | 0.00 | 0.07 | 0.00 | 72 | 1018.3 |
| 20260506133023 | 46 | 210 | 2.6 | 6.1 | 0.00 | 0.07 | 0.00 | 72 | 1018.3 |
| 20260506131018 | 46 | 228 | 1.7 | 7.8 | 0.00 | 0.05 | 0.00 | 72 | 1018.3 |
| 20260506130514 | 46 | 250 | 1.7 | 7.8 | 0.00 | 0.05 | 0.00 | 72 | 1018.3 |
| 20260506130008 | 46 | 161 | 1.7 | 6.1 | 0.00 | 0.05 | 0.00 | 72 | 1018.3 |
| 20260506125507 | 46 | 241 | 1.7 | 6.1 | 0.00 | 0.05 | 0.00 | 72 | 1018.3 |
| 20260506125009 | 46 | 268 | 2.6 | 5.2 | 0.00 | 0.05 | 0.00 | 72 | 1018.3 |
| 20260506124507 | 46 | 226 | 0.9 | 7.0 | 0.00 | 0.05 | 0.00 | 72 | 1018.3 |
| 20260506123506 | 46 | 249 | 1.7 | 2.6 | 0.00 | 0.05 | 0.00 | 72 | 1018.3 |
| 20260506123010 | 46 | 204 | 1.7 | 6.1 | 0.00 | 0.05 | 0.00 | 72 | 1018.3 |
| 20260506122507 | 46 | 172 | 0.9 | 6.1 | 0.00 | 0.05 | 0.00 | 72 | 1018.3 |
| 20260506122008 | 46 | 247 | 1.7 | 6.1 | 0.00 | 0.05 | 0.00 | 72 | 1018.3 |
| 20260506121506 | 46 | 164 | 2.6 | 6.1 | 0.00 | 0.05 | 0.00 | 72 | 1018.3 |
| 20260506121009 | 46 | 168 | 0.9 | 7.0 | 0.00 | 0.02 | 0.00 | 72 | 1018.3 |
| 20260506120507 | 46 | 178 | 3.5 | 7.8 | 0.00 | 0.02 | 0.00 | 72 | 1018.3 |
| 20260506115507 | 46 | 150 | 2.6 | 7.0 | 0.00 | 0.02 | 0.00 | 72 | 1018.3 |
| 20260506113507 | 46 | 109 | 2.6 | 8.7 | 0.00 | 0.02 | 0.00 | 72 | 1018.3 |
| 20260506113008 | 46 | 169 | 2.6 | 8.7 | 0.00 | 0.02 | 0.00 | 72 | 1018.3 |
| 20260506112509 | 46 | 131 | 2.6 | 7.8 | 0.00 | 0.02 | 0.00 | 72 | 1018.3 |
| 20260506112011 | 46 | 155 | 5.2 | 7.8 | 0.00 | 0.02 | 0.00 | 72 | 1018.3 |
| 20260506111510 | 46 | 155 | 1.7 | 6.1 | 0.00 | 0.02 | 0.00 | 72 | 1018.3 |
| 20260506111012 | 46 | 251 | 1.7 | 6.1 | 0.00 | 0.02 | 0.00 | 72 | 1018.3 |
| 20260506110527 | 46 | 94 | 1.7 | 7.0 | 0.00 | 0.02 | 0.00 | 72 | 1018.3 |
| 20260506110007 | 46 | 146 | 1.7 | 7.8 | 0.00 | 0.02 | 0.00 | 72 | 1018.3 |
| 20260506105518 | 46 | 124 | 3.5 | 8.7 | 0.00 | 0.02 | 0.00 | 72 | 1018.3 |
| 20260506105009 | 46 | 109 | 5.2 | 8.7 | 0.00 | 0.02 | 0.00 | 72 | 1018.3 |
| 20260506104509 | 46 | 149 | 2.6 | 7.8 | 0.00 | 0.02 | 0.00 | 72 | 1018.3 |
| 20260506104008 | 46 | 137 | 2.6 | 7.8 | 0.00 | 0.02 | 0.00 | 72 | 1018.3 |
| 20260506103507 | 46 | 208 | 1.7 | 6.1 | 0.00 | 0.02 | 0.00 | 72 | 1018.3 |
| 20260506103010 | 46 | 181 | 2.6 | 6.1 | 0.00 | 0.02 | 0.00 | 72 | 1018.3 |
| 20260506102507 | 46 | 161 | 0.9 | 6.1 | 0.00 | 0.02 | 0.00 | 72 | 1018.3 |
| 20260506102008 | 46 | 208 | 2.6 | 6.1 | 0.00 | 0.02 | 0.00 | 72 | 1018.3 |
| 20260506101506 | 46 | 97 | 3.5 | 5.2 | 0.00 | 0.02 | 0.00 | 72 | 1018.3 |
| 20260506101009 | 46 | 92 | 1.7 | 5.2 | 0.00 | 0.02 | 0.00 | 72 | 1018.3 |
| 20260506100507 | 46 | 54 | 2.6 | 5.2 | 0.00 | 0.02 | 0.00 | 72 | 1018.3 |
| 20260506100007 | 46 | 233 | 1.7 | 7.0 | 0.00 | 0.02 | 0.00 | 72 | 1018.3 |
| 20260506095507 | 46 | 154 | 3.5 | 7.0 | 0.00 | 0.02 | 0.00 | 72 | 1018.3 |
| 20260506094507 | 46 | 172 | 2.6 | 5.2 | 0.00 | 0.02 | 0.00 | 72 | 1018.3 |
| 20260506093507 | 46 | 136 | 2.6 | 6.1 | 0.00 | 0.02 | 0.00 | 72 | 1018.3 |
| 20260506093006 | 46 | 162 | 1.7 | 6.1 | 0.00 | 0.02 | 0.00 | 72 | 1018.3 |
| 20260506092506 | 46 | 207 | 0.9 | 2.6 | 0.00 | 0.02 | 0.00 | 72 | 1018.3 |
| 20260506092006 | 46 | 285 | 0.0 | 2.6 | 0.00 | 0.02 | 0.00 | 72 | 1018.3 |
| 20260506091506 | 46 | 171 | 1.7 | 4.3 | 0.00 | 0.02 | 0.00 | 72 | 1018.3 |
| 20260506090007 | 46 | 165 | 1.7 | 2.6 | 0.00 | 0.02 | 0.00 | 72 | 1018.3 |
| 20260506085514 | 46 | 123 | 1.7 | 6.1 | 0.00 | 0.02 | 0.00 | 72 | 1018.3 |
| 20260506085006 | 46 | 123 | 2.6 | 6.1 | 0.00 | 0.02 | 0.00 | 72 | 1018.3 |
| 20260506084506 | 46 | 169 | 0.9 | 2.6 | 0.02 | 0.02 | 0.00 | 72 | 1018.3 |
| 20260506084007 | 46 | 108 | 1.7 | 5.2 | 0.00 | 0.02 | 0.00 | 72 | 1018.3 |
| 20260506083007 | 46 | 126 | 2.6 | 8.7 | 0.00 | 0.02 | 0.00 | 72 | 1018.3 |
| 20260506082507 | 46 | 119 | 3.5 | 8.7 | 0.00 | 0.02 | 0.00 | 72 | 1018.3 |
| 20260506082007 | 46 | 94 | 2.6 | 8.7 | 0.00 | 0.02 | 0.00 | 72 | 1018.3 |
| 20260506081507 | 46 | 123 | 2.6 | 5.2 | 0.00 | 0.02 | 0.00 | 72 | 1018.3 |
| 20260506081010 | 46 | 165 | 0.9 | 2.6 | 0.00 | 0.02 | 0.00 | 72 | 1018.3 |
| 20260506080507 | 46 | 135 | 0.9 | 2.6 | 0.00 | 0.02 | 0.00 | 72 | 1018.3 |
| 20260506073507 | 46 | 221 | 0.0 | 1.7 | 0.00 | 0.00 | 0.00 | 72 | 1018.3 |
| 20260506073006 | 46 | 223 | 0.0 | 1.7 | 0.00 | 0.00 | 0.00 | 72 | 1018.3 |
| 20260506072506 | 46 | 223 | 0.0 | 1.7 | 0.00 | 0.00 | 0.00 | 72 | 1018.3 |
| 20260506072006 | 46 | 229 | 0.9 | 1.7 | 0.00 | 0.00 | 0.00 | 72 | 1018.3 |
| 20260506071506 | 46 | 244 | 0.9 | 2.6 | 0.00 | 0.02 | 0.00 | 72 | 1018.3 |
| 20260506071007 | 46 | 212 | 0.9 | 2.6 | 0.00 | 0.02 | 0.00 | 72 | 1018.3 |
| 20260506061506 | 46 | 290 | 0.0 | 0.0 | 0.00 | 0.02 | 0.00 | 72 | 1018.3 |
| 20260506060506 | 46 | 290 | 0.0 | 0.0 | 0.00 | 0.03 | 0.00 | 72 | 1018.3 |
| 20260506051010 | 46 | 236 | 0.0 | 0.9 | 0.00 | 0.03 | 0.00 | 72 | 1018.3 |
| 20260506050508 | 46 | 235 | 0.0 | 0.0 | 0.00 | 0.03 | 0.00 | 72 | 1018.3 |
| 20260506045010 | 46 | 235 | 0.0 | 1.7 | 0.00 | 0.03 | 0.00 | 72 | 1018.3 |
| 20260506044507 | 46 | 235 | 0.0 | 1.7 | 0.00 | 0.03 | 0.00 | 72 | 1018.3 |
| 20260506044010 | 46 | 248 | 0.0 | 1.7 | 0.00 | 0.03 | 0.00 | 72 | 1018.3 |
| 20260506043507 | 46 | 262 | 0.9 | 1.7 | 0.00 | 0.03 | 0.00 | 72 | 1018.3 |
| 20260506043010 | 46 | 289 | 0.0 | 1.7 | 0.00 | 0.03 | 0.00 | 72 | 1018.3 |
| 20260506042506 | 46 | 289 | 0.0 | 1.7 | 0.00 | 0.03 | 0.00 | 72 | 1018.3 |
| 20260506042009 | 46 | 108 | 0.0 | 0.9 | 0.00 | 0.03 | 0.00 | 72 | 1018.3 |
| 20260506041507 | 46 | 108 | 0.0 | 5.2 | 0.00 | 0.03 | 0.00 | 72 | 1018.3 |
| 20260506040507 | 46 | 108 | 0.0 | 5.2 | 0.00 | 0.03 | 0.00 | 72 | 1018.3 |
| 20260506035507 | 46 | 108 | 0.0 | 5.2 | 0.00 | 0.03 | 0.00 | 72 | 1018.3 |
| 20260506035013 | 46 | 108 | 0.0 | 5.2 | 0.00 | 0.03 | 0.00 | 72 | 1018.3 |
| 20260506034011 | 46 | 108 | 0.0 | 5.2 | 0.00 | 0.03 | 0.00 | 72 | 1018.3 |
| 20260506033510 | 46 | 108 | 0.0 | 5.2 | 0.00 | 0.03 | 0.00 | 72 | 1018.3 |
| 20260506033011 | 46 | 93 | 0.0 | 5.2 | 0.00 | 0.03 | 0.00 | 72 | 1018.3 |
| 20260506031506 | 46 | 304 | 0.0 | 0.0 | 0.00 | 0.03 | 0.00 | 72 | 1018.3 |
| 20260506030509 | 46 | 304 | 0.0 | 2.6 | 0.00 | 0.03 | 0.00 | 72 | 1018.3 |
| 20260506030007 | 46 | 304 | 0.9 | 2.6 | 0.00 | 0.03 | 0.00 | 72 | 1018.3 |
| 20260506025507 | 46 | 300 | 0.9 | 5.2 | 0.00 | 0.03 | 0.00 | 72 | 1018.3 |
| 20260506025009 | 46 | 232 | 0.0 | 5.2 | 0.00 | 0.03 | 0.00 | 72 | 1018.3 |
| 20260506024507 | 46 | 259 | 0.0 | 1.7 | 0.00 | 0.03 | 0.00 | 72 | 1018.3 |
| 20260506024013 | 46 | 300 | 0.0 | 0.0 | 0.00 | 0.03 | 0.00 | 72 | 1018.3 |
| 20260506023509 | 46 | 300 | 0.0 | 0.0 | 0.00 | 0.03 | 0.00 | 72 | 1018.3 |
| 20260506023008 | 46 | 300 | 0.0 | 0.0 | 0.00 | 0.03 | 0.00 | 72 | 1018.3 |
| 20260506022508 | 46 | 300 | 0.0 | 0.0 | 0.00 | 0.03 | 0.00 | 72 | 1018.3 |
| 20260506022010 | 46 | 300 | 0.0 | 0.0 | 0.00 | 0.03 | 0.00 | 72 | 1018.3 |
| 20260506021506 | 46 | 300 | 0.0 | 0.0 | 0.00 | 0.03 | 0.00 | 72 | 1018.3 |
| 20260506021009 | 46 | 300 | 0.0 | 0.0 | 0.00 | 0.03 | 0.00 | 72 | 1018.3 |
| 20260506020507 | 46 | 300 | 0.0 | 0.0 | 0.00 | 0.03 | 0.00 | 72 | 1018.3 |
| 20260506020007 | 46 | 300 | 0.0 | 0.0 | 0.00 | 0.04 | 0.00 | 72 | 1018.3 |
| 20260506015013 | 46 | 300 | 0.0 | 0.0 | 0.00 | 0.04 | 0.00 | 72 | 1018.3 |
| 20260506014521 | 46 | 300 | 0.0 | 0.0 | 0.00 | 0.04 | 0.00 | 72 | 1018.3 |
| 20260506014041 | 46 | 300 | 0.0 | 0.0 | 0.00 | 0.04 | 0.00 | 72 | 1018.3 |
| 20260506013509 | 46 | 300 | 0.0 | 0.0 | 0.00 | 0.04 | 0.00 | 72 | 1018.3 |
| 20260506013209 | 46 | 300 | 0.0 | 0.0 | 0.00 | 0.04 | 0.00 | 72 | 1018.3 |
| 20260506012508 | 46 | 300 | 0.0 | 0.0 | 0.00 | 0.04 | 0.00 | 72 | 1018.3 |
| 20260506012009 | 46 | 300 | 0.0 | 0.0 | 0.00 | 0.04 | 0.00 | 72 | 1018.3 |
| 20260506011009 | 46 | 300 | 0.0 | 0.0 | 0.00 | 0.04 | 0.00 | 72 | 1018.3 |
| 20260506010507 | 46 | 300 | 0.0 | 0.0 | 0.00 | 0.04 | 0.00 | 72 | 1018.3 |
| 20260506010006 | 46 | 300 | 0.0 | 0.0 | 0.00 | 0.04 | 0.00 | 72 | 1018.3 |
| 20260506005506 | 46 | 300 | 0.0 | 0.0 | 0.00 | 0.04 | 0.00 | 72 | 1018.3 |
| 20260506005006 | 46 | 300 | 0.0 | 0.0 | 0.00 | 0.04 | 0.00 | 72 | 1018.3 |
| 20260506004011 | 46 | 300 | 0.0 | 0.0 | 0.00 | 0.04 | 0.00 | 72 | 1018.3 |
| 20260506003506 | 46 | 300 | 0.0 | 0.0 | 0.00 | 0.04 | 0.00 | 72 | 1018.3 |
| 20260506003006 | 46 | 300 | 0.0 | 0.0 | 0.00 | 0.04 | 0.00 | 72 | 1018.3 |
| 20260506002505 | 46 | 300 | 0.0 | 0.0 | 0.00 | 0.04 | 0.00 | 72 | 1018.3 |
| 20260506001505 | 46 | 300 | 0.0 | 1.7 | 0.00 | 0.04 | 0.00 | 72 | 1018.3 |
| 20260506001006 | 46 | 300 | 0.0 | 1.7 | 0.00 | 0.04 | 0.00 | 72 | 1018.3 |
| 20260506000506 | 46 | 300 | 0.9 | 1.7 | 0.00 | 0.04 | 0.00 | 72 | 1018.3 |
| 20260506000008 | 46 | 303 | 0.9 | 2.6 | 0.00 | 0.04 | 0.00 | 72 | 1018.3 |